Location: Barletta
(41.3170°N, 16.2830°E)
Time: 17:13:05
(UTC+02:00)

ISS - Pass Details

Date: 14 May 2021
Orbit: 417 x 422 km, 51.6° (Epoch: 18 June)

Event Time Altitude Azimuth Distance (km) Brightness Sun altitude
Rises 02:50:50 0° 309° (NW) 2,373 0.2 -23.9°
Reaches altitude 10° 02:53:20 10° 327° (NNW) 1,508 -0.7 -23.7°
Maximum altitude 02:55:55 20° 17° (NNE) 1,043 -1.0 -23.4°
Drops below altitude 10° 02:58:30 10° 67° (ENE) 1,507 -0.2 -23.2°
Sets 03:00:59 0° 85° (E) 2,371 0.6 -22.9°
